GW6791 Weather Reports


time (UTC)temp
F
wind
direction
speed
knots
gust
knots
rain 1hr
in
rain 24hr
in
rain mn
in
humidity
%
barometer
mb
20260503201514 63 226 3.5 7.8 0.00 0.00 0.00 33 1053.0
20260503201011 64 253 7.8 9.6 0.00 0.00 0.00 33 1053.2
20260503200507 63 220 2.6 9.6 0.00 0.00 0.00 34 1053.2
20260503200003 64 262 8.7 13.0 0.00 0.00 0.00 34 1053.1
20260503195500 63 214 1.7 3.5 0.00 0.00 0.00 35 1053.3
20260503194957 64 198 5.2 12.2 0.00 0.00 0.00 31 1053.4
20260503194454 64 178 2.6 3.5 0.00 0.00 0.00 35 1053.5
20260503193949 63 173 3.5 5.2 0.00 0.00 0.00 35 1053.6
20260503193446 63 288 5.2 8.7 0.00 0.00 0.00 35 1053.5
20260503192941 64 211 6.1 7.0 0.00 0.00 0.00 36 1053.9
20260503192438 64 201 7.0 8.7 0.00 0.00 0.00 34 1053.8
20260503191933 63 218 1.7 7.8 0.00 0.00 0.00 32 1053.7
20260503191431 64 213 6.1 8.7 0.00 0.00 0.00 34 1054.0
20260503190927 65 105 1.7 2.6 0.00 0.00 0.00 35 1053.8
20260503190425 65 200 0.9 1.7 0.00 0.00 0.00 33 1054.2
20260503185922 63 136 0.0 1.7 0.00 0.00 0.00 36 1054.3
20260503185418 63 217 1.7 5.2 0.00 0.00 0.00 38 1054.1
20260503184917 62 194 3.5 5.2 0.00 0.00 0.00 35 1054.7
20260503184414 61 237 6.1 7.8 0.00 0.00 0.00 37 1054.3
20260503183910 62 179 5.2 7.8 0.00 0.00 0.00 35 1054.6
20260503183407 62 228 3.5 7.0 0.00 0.00 0.00 38 1054.6
20260503182904 63 192 3.5 7.0 0.00 0.00 0.00 36 1054.7
20260503182403 62 99 1.7 3.5 0.00 0.00 0.00 36 1054.5
20260503181900 62 232 5.2 6.1 0.00 0.00 0.00 35 1054.7
20260503181356 62 106 2.6 7.0 0.00 0.00 0.00 36 1054.7
20260503180853 61 103 0.9 5.2 0.00 0.00 0.00 38 1054.9
20260503180351 60 221 1.7 5.2 0.00 0.00 0.00 39 1055.0
20260503175847 60 214 0.9 3.5 0.00 0.00 0.00 30 1055.1
20260503175345 60 212 1.7 5.2 0.00 0.00 0.00 35 1055.1
20260503174840 60 278 5.2 7.0 0.00 0.00 0.00 33 1055.2
20260503174339 60 224 7.0 7.8 0.00 0.00 0.00 34 1055.3
20260503173834 62 179 4.3 6.1 0.00 0.00 0.00 35 1055.3
20260503173330 61 115 2.6 3.5 0.00 0.00 0.00 36 1055.5
20260503172827 61 255 3.5 6.1 0.00 0.00 0.00 35 1055.5
20260503172325 60 203 2.6 2.6 0.00 0.00 0.00 32 1055.7
20260503171821 61 16 0.9 2.6 0.00 0.00 0.00 31 1055.9
20260503171318 61 170 1.7 1.7 0.00 0.00 0.00 41 1055.8
20260503170815 60 172 3.5 5.2 0.00 0.00 0.00 39 1056.2
20260503170311 60 244 2.6 7.0 0.00 0.00 0.00 35 1056.1
20260503150704 56 215 3.5 5.2 0.00 0.00 0.00 41 1057.0
20260503150200 56 239 0.9 3.5 0.00 0.00 0.00 40 1056.9
20260503140124 53 226 2.6 3.5 0.00 0.00 0.00 51 1057.0
20260503131054 50 201 0.9 1.7 0.00 0.00 0.00 60 1056.9
20260503130550 50 209 1.7 2.6 0.00 0.00 0.00 59 1056.9
20260503110441 31 76 0.9 0.9 0.00 0.00 0.00 94 1056.1
20260503090332 32 74 0.9 0.9 0.00 0.00 0.00 92 1055.4
20260503081300 34 74 0.9 0.9 0.00 0.00 0.00 88 1055.3
20260503080756 34 74 0.0 0.9 0.00 0.00 0.00 87 1055.2
20260503080253 34 74 0.0 0.9 0.00 0.00 0.00 88 1055.1
20260503072730 36 9 0.0 0.9 0.00 0.00 0.00 81 1055.0
20260503072226 36 8 0.0 0.0 0.00 0.00 0.00 80 1055.1
20260503071723 37 7 0.0 0.0 0.00 0.00 0.00 77 1055.0
20260503071220 36 7 0.0 0.0 0.00 0.00 0.00 78 1055.1
20260503070716 35 7 0.0 0.0 0.00 0.00 0.00 79 1055.0
20260503070215 36 7 0.0 0.0 0.00 0.00 0.00 79 1055.1
20260503060139 41 8 0.0 0.0 0.00 0.00 0.00 64 1055.1
20260503054626 41 8 0.0 0.0 0.00 0.00 0.00 64 1055.1
20260503054123 41 8 0.0 0.9 0.00 0.00 0.00 64 1055.1
20260503053621 41 7 0.0 0.9 0.00 0.00 0.00 65 1055.2
20260503053120 41 7 0.0 0.9 0.00 0.00 0.00 64 1055.4
20260503052615 41 6 0.0 0.9 0.00 0.00 0.00 64 1055.3
20260503052112 41 6 0.0 0.9 0.00 0.00 0.00 64 1055.1
20260503051607 41 5 0.0 0.0 0.00 0.00 0.00 64 1055.1
20260503051106 42 5 0.0 0.9 0.00 0.00 0.00 64 1055.0
20260503050601 42 6 0.0 0.9 0.00 0.00 0.00 63 1055.2
20260503050058 42 5 0.0 0.9 0.00 0.00 0.00 63 1055.1
20260503045555 42 6 0.9 0.9 0.00 0.00 0.00 62 1055.1
20260503045053 42 357 0.9 1.7 0.00 0.00 0.00 62 1055.1
20260503044549 43 357 1.7 1.7 0.00 0.00 0.00 62 1055.1
20260503044047 43 2 1.7 1.7 0.00 0.00 0.00 61 1055.1
20260503043543 43 341 1.7 2.6 0.00 0.00 0.00 62 1055.1
20260503043040 43 335 0.9 1.7 0.00 0.00 0.00 62 1055.2
20260503042537 43 344 0.9 2.6 0.00 0.00 0.00 63 1055.2
20260503042033 43 331 1.7 1.7 0.00 0.00 0.00 63 1055.1
20260503041530 43 332 0.9 1.7 0.00 0.00 0.00 64 1054.9
20260503041028 43 331 1.7 1.7 0.00 0.00 0.00 63 1054.9
20260503040525 43 335 1.7 1.7 0.00 0.00 0.00 64 1055.2
20260503040022 43 328 1.7 2.6 0.00 0.00 0.00 64 1055.0
20260503035519 43 321 0.9 1.7 0.00 0.00 0.00 65 1054.9
20260503035016 44 319 1.7 1.7 0.00 0.00 0.00 65 1055.1
20260503034513 44 322 0.9 1.7 0.00 0.00 0.00 65 1054.9
20260503034010 44 323 0.9 1.7 0.00 0.00 0.00 65 1055.0
20260503033508 44 320 0.9 1.7 0.00 0.00 0.00 65 1054.9
20260503033006 44 317 1.7 2.6 0.00 0.00 0.00 65 1054.7
20260503032504 44 325 0.9 1.7 0.00 0.00 0.00 65 1054.9
20260503032001 44 319 0.9 1.7 0.00 0.00 0.00 65 1054.8
20260503031459 45 319 0.9 1.7 0.00 0.00 0.00 65 1054.7
20260503030955 45 318 0.9 0.9 0.00 0.00 0.00 65 1054.7
20260503030451 45 314 1.7 1.7 0.00 0.00 0.00 65 1054.9
20260503025949 45 312 0.9 1.7 0.00 0.00 0.00 65 1054.8
20260503025445 45 317 1.7 2.6 0.00 0.00 0.00 66 1054.8
20260503024943 44 316 0.9 2.6 0.00 0.00 0.00 67 1054.8
20260503024439 44 296 0.9 1.7 0.00 0.00 0.00 67 1054.6
20260503023937 45 289 0.0 0.9 0.00 0.00 0.00 68 1054.6
20260503023434 45 282 0.9 0.9 0.00 0.00 0.00 69 1054.3
20260503022931 45 273 0.9 0.9 0.00 0.00 0.00 70 1054.6
20260503022426 45 273 0.9 1.7 0.00 0.00 0.00 69 1054.3
20260503021922 45 269 0.9 0.9 0.00 0.00 0.00 67 1054.3
20260503021418 46 259 0.9 0.9 0.00 0.00 0.00 63 1054.2
20260503020916 46 259 0.0 0.9 0.00 0.00 0.00 62 1053.9
20260503020413 46 259 0.0 0.9 0.00 0.00 0.00 62 1053.9
20260503015909 46 259 0.0 0.0 0.00 0.00 0.00 62 1053.9
20260503015407 46 259 0.0 0.0 0.00 0.00 0.00 61 1053.8
20260503014902 46 259 0.0 0.0 0.00 0.00 0.00 61 1053.9
20260503014400 46 259 0.0 0.0 0.00 0.00 0.00 62 1053.8
20260503013858 46 259 0.0 0.0 0.00 0.00 0.00 63 1053.7
20260503013354 46 259 0.0 0.0 0.00 0.00 0.00 64 1053.8
20260503012851 47 259 0.0 0.0 0.00 0.00 0.00 64 1053.8
20260503012349 47 259 0.0 0.0 0.00 0.00 0.00 63 1053.3
20260503011846 48 259 0.0 0.0 0.00 0.00 0.00 61 1053.5
20260503011342 48 259 0.0 0.9 0.00 0.00 0.00 60 1053.5
20260503010839 48 259 0.0 0.9 0.00 0.00 0.00 59 1053.5
20260503010336 49 259 0.0 0.9 0.00 0.00 0.00 59 1053.4
20260503005833 49 259 0.0 0.0 0.00 0.00 0.00 58 1053.4
20260503005331 49 259 0.0 0.9 0.00 0.00 0.00 57 1053.6
20260503004826 49 259 0.9 0.9 0.00 0.00 0.00 57 1053.3
20260503004324 49 271 0.9 1.7 0.00 0.00 0.00 57 1053.3
20260503003821 49 265 0.9 1.7 0.00 0.00 0.00 57 1053.2
20260503003318 49 291 0.9 0.9 0.00 0.00 0.00 57 1053.2
20260503002815 50 298 0.9 1.7 0.00 0.00 0.00 56 1053.3
20260503002312 50 321 1.7 2.6 0.00 0.00 0.00 55 1053.0
20260503001809 49 303 2.6 5.2 0.00 0.00 0.00 55 1052.9
20260503001305 50 298 2.6 2.6 0.00 0.00 0.00 55 1052.9
20260503000803 50 285 0.9 1.7 0.00 0.00 0.00 54 1052.8
20260503000300 51 305 1.7 2.6 0.00 0.00 0.00 53 1052.8
20260502235757 51 287 2.6 3.5 0.00 0.00 0.00 52 1052.7
20260502235254 52 276 2.6 5.2 0.00 0.00 0.00 51 1052.7
20260502234750 52 295 3.5 5.2 0.00 0.00 0.00 50 1052.6
20260502234248 51 291 3.5 6.1 0.00 0.00 0.00 49 1052.9
20260502233744 52 299 3.5 6.1 0.00 0.00 0.00 51 1052.6
20260502233241 52 320 4.3 7.0 0.00 0.00 0.00 50 1052.6
20260502232736 53 306 2.6 7.0 0.00 0.00 0.00 50 1052.6
20260502232234 54 322 4.3 5.2 0.00 0.00 0.00 48 1052.6
20260502231730 55 294 6.1 8.7 0.00 0.00 0.00 45 1052.4
20260502231228 55 322 2.6 2.6 0.00 0.00 0.00 50 1052.5
20260502230727 54 296 3.5 5.2 0.00 0.00 0.00 50 1052.6
20260502230225 53 310 4.3 6.1 0.00 0.00 0.00 49 1052.5
20260502225720 53 320 1.7 2.6 0.00 0.00 0.00 53 1052.6
20260502225218 54 321 6.1 7.0 0.00 0.00 0.00 50 1052.6
20260502224714 55 322 5.2 6.1 0.00 0.00 0.00 48 1052.6
20260502224211 55 333 3.5 5.2 0.00 0.00 0.00 50 1052.7
20260502223708 53 330 3.5 6.1 0.00 0.00 0.00 52 1052.4
20260502223206 53 327 1.7 5.2 0.00 0.00 0.00 51 1052.7
20260502222704 53 330 3.5 5.2 0.00 0.00 0.00 52 1052.9
20260502222200 53 288 2.6 3.5 0.00 0.00 0.00 52 1052.6
20260502221655 53 311 1.7 3.5 0.00 0.00 0.00 49 1052.8
20260502221153 53 312 4.3 6.1 0.00 0.00 0.00 52 1052.8
20260502220649 53 273 5.2 7.0 0.00 0.00 0.00 51 1052.6
20260502220145 54 300 2.6 2.6 0.00 0.00 0.00 52 1052.5
20260502215643 54 329 3.5 5.2 0.00 0.00 0.00 52 1052.5
20260502215139 53 248 4.3 7.8 0.00 0.00 0.00 51 1052.6
20260502214637 53 274 4.3 7.0 0.00 0.00 0.00 51 1052.6
20260502214134 53 263 3.5 3.5 0.00 0.00 0.00 52 1052.6
20260502213631 53 286 1.7 5.2 0.00 0.00 0.00 52 1052.5
20260502213128 54 242 2.6 6.1 0.00 0.00 0.00 51 1052.5
20260502212627 53 278 2.6 5.2 0.00 0.00 0.00 51 1052.6
20260502212125 53 287 4.3 6.1 0.00 0.00 0.00 51 1052.6
20260502211620 53 284 2.6 7.0 0.00 0.00 0.00 51 1052.7
20260502211117 53 283 2.6 6.1 0.00 0.00 0.00 53 1052.4
20260502210615 53 308 3.5 5.2 0.00 0.00 0.00 54 1052.8
20260502210112 53 313 3.5 5.2 0.00 0.00 0.00 54 1052.6
20260502205608 53 309 4.3 6.1 0.00 0.00 0.00 53 1052.6
20260502205105 53 237 3.5 5.2 0.00 0.00 0.00 53 1052.4
20260502204602 53 247 2.6 3.5 0.00 0.00 0.00 53 1052.8
20260502204100 53 274 2.6 3.5 0.00 0.00 0.00 53 1052.6
20260502203556 53 302 5.2 7.0 0.00 0.00 0.00 53 1052.7
20260502203054 54 290 3.5 5.2 0.00 0.00 0.00 53 1052.8
20260502202549 54 336 2.6 3.5 0.00 0.00 0.00 55 1052.7
20260502202048 54 309 3.5 6.1 0.00 0.00 0.00 51 1052.8
20260502201544 54 303 3.5 7.0 0.00 0.00 0.00 52 1052.8